Regional Weather Roundup
Issued by NWS

Home | Current Version | Previous Version | Text Only | Print | Product List | Glossary On
Versions: 1 2 3 4 5 6 7 8 9 10 11 12 13 14 15 16 17 18 19 20 21 22 23 24 25 26 27 28 29 30 31 32 33 34 35 36 37 38 39 40 41 42 43 44 45 46 47 48 49 50
000
ASUS43 KDMX 162206
RWRIA

WEATHER ROUNDUP FOR IOWA
NATIONAL WEATHER SERVICE DES MOINES IA
500 PM CDT MON OCT 16 2017

NOTE: "FAIR" INDICATES FEW OR NO CLOUDS BELOW 12,000 FEET WITH NO
SIGNIFICANT WEATHER AND/OR OBSTRUCTIONS TO VISIBILITY.

* - THESE STATIONS ARE NOT NWS STATIONS...THUS NOT UNDER NWS
QUALITY CONTROL.  THEY ALSO DO NOT REPORT WEATHER SUCH
AS PRECIPITATION OR FOG.

IAZ001>003-012>014-020>022-031>034-043>046-162300-
   NORTHWEST IOWA

CITY           SKY/WX    TMP DP  RH WIND       PRES   REMARKS
CARROLL *      SUNNY     73  39  29 SW21      30.11F
CHEROKEE *     SUNNY     69  38  31 SW13G20   30.07F
DENISON *      SUNNY     70  36  28 S17G29    30.11F
LE MARS *      SUNNY     75  36  23 S15G21    30.04F
ORANGE CITY *  SUNNY     73  39  29 S14       30.05F
SHELDON *      SUNNY     72  36  26 S14G22    30.02F
SIOUX CITY     SUNNY     75  37  25 S15       30.06F
SPENCER        SUNNY     71  34  25 SW17G25   30.06F
STORM LAKE *   SUNNY     70  34  26 SW16G25   30.08F
$$

IAZ055>058-069>071-079>083-090>094-162300-
   SOUTHWEST IOWA

CITY           SKY/WX    TMP DP  RH WIND       PRES   REMARKS
ATLANTIC *     SUNNY     70  37  30 S16G26    30.14F
AUDUBON *      SUNNY     70  34  26 S14       30.15F
CLARINDA *     SUNNY     72  37  28 SW14      30.20F
COUNCIL BLFS * SUNNY     72  39  30 S14G22    30.13F
CRESTON *      SUNNY     68  37  32 SW15      30.19F
HARLAN  *      SUNNY     72  36  26 SW18G24   30.16F
LAMONI         SUNNY     67  40  37 SW9       30.21F HAZE
RED OAK *      SUNNY     72  37  28 SW14G25   30.16F
SHENANDOAH *   SUNNY     73  36  25 S15G21    30.17F
$$

IAZ047>049-059>061-072>074-084-162300-
   CENTRAL IOWA

CITY           SKY/WX    TMP DP  RH WIND       PRES   REMARKS
AMES           SUNNY     68  37  32 SW14      30.14F
ANKENY *       SUNNY     68  37  32 S13       30.17F
BOONE *        SUNNY     68  36  30 S14G20    30.13F
CHARITON *     SUNNY     66  36  32 S12       30.20F
DES MOINES     SUNNY     68  36  30 S15       30.16F
GRINNELL*      SUNNY     66  34  29 S10       30.20F
KNOXVILLE *    SUNNY     68  34  28 SW8G16    30.19F
MARSHALLTOWN   SUNNY     66  36  32 SW13      30.16F
NEWTON *       SUNNY     68  36  30 SW13      30.18F
PELLA *        SUNNY     68  33  27 SW6       30.21F
PERRY *          N/A     70  32  24 S12G18    30.14F
$$

IAZ004>006-015-016-023>025-035-036-162300-
   NORTH CENTRAL IOWA

CITY           SKY/WX    TMP DP  RH WIND       PRES   REMARKS
ALGONA *       SUNNY     70  36  28 SW13G25   30.08F
CLARION *      SUNNY     68  36  30 SW16G23   30.11F
ESTHERVILLE    SUNNY     68  34  28 S16G23    30.05F
FORT DODGE *   SUNNY     69  37  30 SW14      30.11F
MASON CITY     SUNNY     66  35  31 S16G22    30.12F
FOREST CITY *    N/A     68  32  26 SW13G20   30.10F
WEBSTER CITY * SUNNY     70  34  26 S14G21    30.10F
IOWA FALLS *     N/A     68  36  30 SW14G22   30.15F
$$

IAZ007>011-017>019-026>030-037>042-050>054-066-162300-
   NORTHEAST IOWA

CITY           SKY/WX    TMP DP  RH WIND       PRES   REMARKS
CEDAR RAPIDS   SUNNY     66  33  29 SW13      30.19F
CHARLES CITY * SUNNY     66  32  28 SW12G20   30.13F
CLINTON *      SUNNY     64  33  31 W10       30.22F
DECORAH *      SUNNY     64  32  29 SW8       30.13F
DUBUQUE        SUNNY     61  32  33 W10       30.19F
MONTICELLO *   SUNNY     64  34  32 W8        30.18F
OELWEIN *      SUNNY     64  36  34 SW12      30.16F
WATERLOO       SUNNY     65  34  31 SW14      30.15F
$$

IAZ064-065-067-068-078-162300-
   EAST CENTRAL IOWA

CITY           SKY/WX    TMP DP  RH WIND       PRES   REMARKS
DAVENPORT      SUNNY     64  33  31 W10       30.23F
IOWA CITY      SUNNY     67  33  28 SW8       30.21F
MUSCATINE *    SUNNY     66  36  32 W9        30.22F
QUAD CITIES    SUNNY     65  35  33 W7        30.21F
$$

IAZ062-063-075>077-085>089-095>099-162300-
   SOUTHEAST IOWA

CITY           SKY/WX    TMP DP  RH WIND       PRES   REMARKS
BURLINGTON     SUNNY     66  36  32 VRB7      30.23F
FAIRFIELD *    SUNNY     66  34  30 SW9       30.22F
FORT MADISON * SUNNY     66  36  32 SW6       30.24F
KEOKUK *       SUNNY     66  36  32 SW9       30.24F
OSKALOOSA *      N/A     66  35  31 SW10G16   30.22S
OTTUMWA        SUNNY     67  35  30 SW9       30.21F
WASHINGTON *   SUNNY     66  36  32 VRB7G13   30.22F
$$

ABBREVIATIONS USED IN REMARKS
   TC - TEMPERATURES IN CELSIUS
  WCI - WIND CHILL INDEX
   HX - HEAT INDEX
  VSB - VISIBILITY
$$





USA.gov is the U.S. government's official web portal to all federal, state and local government web resources and services.